St. Thomas, VI

2:39 AM AST on February 25, 2018 (GMT -0400)
King

Weather History for TIST - November, 2013

Change the Weather History Date:

Saturday, November 23, 2013

  Actual Average Record
Temperature  
Mean Temperature 81 °F 81 °F  
Max Temperature 85 °F 87 °F 94 °F (1995)
Min Temperature 76 °F 75 °F 68 °F (1956)
Cooling Degree Days 16 16  
Month to date cooling degree days 377 376  
Year to date cooling degree days 5436 5487  
Growing Degree Days 30 (Base 50)    
Moisture  
Dew Point 71 °F    
Average Humidity 74    
Maximum Humidity 82    
Minimum Humidity 65    
Precipitation  
Precipitation 0.00 in 0.15 in 2.12 in (1982)
Month to date precipitation 6.84 4.31  
Year to date precipitation 43.55 35.46  
Sea Level Pressure  
Sea Level Pressure 29.91 in    
Wind  
Wind Speed 7 mph (ENE)    
Max Wind Speed 16 mph    
Max Gust Speed 21 mph    
Visibility 10 miles    
Events      
T = Trace of Precipitation, MM = Missing Value Source: NWS Daily Summary

Daily Weather History Graph

Daily Weather History Graph

Search for Another Location

Airport or City:

Trip Planner

Search our weather history database for the weather conditions in past years. The results will help you decide how hot, cold, wet, or windy it might be!

Date:

Astronomy

Nov. 23, 2013 Rise Set
Actual Time 6:30 AM AST 5:41 PM AST
Civil Twilight 6:07 AM AST 6:04 PM AST
Nautical Twilight 5:40 AM AST 6:31 PM AST
Astronomical Twilight 5:14 AM AST 6:58 PM AST
Moon 10:48 PM AST (11/23) 11:00 AM AST (11/23)
Length of Visible Light 11h 57m
Length of Day
11h 10m
Waning Gibbous, 70% of the Moon is Illuminated
Nov 23
Waning Gibbous
Nov 25
Last Quarter
Dec 2
New
Dec 9
First Quarter
Dec 17
Full

Hourly Weather History & Observations

Time (AST) Temp. Heat Index Dew Point Humidity Pressure Visibility Wind Dir Wind Speed Gust Speed Precip Events Conditions
12:53 AM 79.0 °F - 71.1 °F 77% 29.91 in 10.0 mi ENE 9.2 mph - N/A   Partly Cloudy
1:53 AM 78.1 °F - 71.1 °F 79% 29.90 in 10.0 mi East 8.1 mph - N/A   Clear
2:53 AM 78.1 °F - 71.1 °F 79% 29.89 in 10.0 mi East 8.1 mph - N/A   Clear
3:53 AM 78.1 °F - 71.1 °F 79% 29.89 in 10.0 mi East 6.9 mph - N/A   Clear
4:53 AM 78.1 °F - 70.0 °F 76% 29.89 in 10.0 mi East 4.6 mph - N/A   Clear
5:53 AM 77.0 °F - 70.0 °F 79% 29.91 in 10.0 mi East 8.1 mph - N/A   Partly Cloudy
6:53 AM 77.0 °F - 70.0 °F 79% 29.92 in 10.0 mi East 3.5 mph - N/A   Clear
7:53 AM 80.1 °F 83.8 °F 72.0 °F 76% 29.94 in 10.0 mi ENE 11.5 mph - N/A   Clear
8:53 AM 82.0 °F 86.3 °F 71.1 °F 69% 29.95 in 10.0 mi East 10.4 mph - N/A   Clear
9:53 AM 84.0 °F 89.6 °F 72.0 °F 67% 29.96 in 10.0 mi ENE 10.4 mph - N/A   Clear
10:53 AM 84.0 °F 89.0 °F 71.1 °F 65% 29.95 in 10.0 mi NE 9.2 mph - N/A   Clear
11:53 AM 84.0 °F 89.0 °F 71.1 °F 65% 29.94 in 10.0 mi NE 10.4 mph - N/A   Partly Cloudy
12:53 PM 84.0 °F 89.6 °F 72.0 °F 67% 29.91 in 10.0 mi NE 10.4 mph - N/A   Partly Cloudy
1:53 PM 84.9 °F 90.7 °F 72.0 °F 65% 29.88 in 10.0 mi NE 9.2 mph - N/A   Clear
2:53 PM 84.9 °F 91.4 °F 73.0 °F 67% 29.87 in 10.0 mi ENE 8.1 mph - N/A   Clear
3:53 PM 84.0 °F 89.6 °F 72.0 °F 67% 29.87 in 10.0 mi East 11.5 mph 17.3 mph N/A   Scattered Clouds
4:53 PM 82.0 °F 86.3 °F 71.1 °F 69% 29.87 in 10.0 mi East 9.2 mph - N/A   Partly Cloudy
5:53 PM 80.1 °F 83.2 °F 70.0 °F 71% 29.88 in 10.0 mi East 8.1 mph - N/A   Partly Cloudy
6:53 PM 78.1 °F - 69.1 °F 74% 29.89 in 10.0 mi ENE 4.6 mph - N/A   Clear
7:53 PM 77.0 °F - 70.0 °F 79% 29.91 in 10.0 mi East 3.5 mph - N/A   Clear
8:53 PM 78.1 °F - 71.1 °F 79% 29.92 in 10.0 mi East 4.6 mph - N/A   Clear
9:53 PM 77.0 °F - 71.1 °F 82% 29.91 in 10.0 mi East 3.5 mph - N/A   Clear
10:53 PM 78.1 °F - 71.1 °F 79% 29.92 in 10.0 mi Calm Calm - N/A   Clear
11:53 PM 77.0 °F - 71.1 °F 82% 29.91 in 10.0 mi Calm Calm - N/A   Clear